DW5729 Sheepshead Bay NY US current weather conditions

sailwx.info

Wind from 246 at 5 knots gusting 13

Air temperature 6.7° C
Dewpoint 2.2° C

Last reported at 2019-Dec-15 13:01 UTC.
Time now 2019-Dec-15 13:32 UTC

Location: N 40°36' W 073°57'.
View on Google Maps.

See reports from other nearby stations

  
Tides and Currents Weather Stations Pressure Air Temp Water Temp Dewpoint Dewpoint Depression Visibility Wind Speed Wind Dir Waves Ship Positions
date/time (UTC)wind fromknots sea level pressurealtimeterstation pressurevisibilityair tempwater tempwave heightnotes
2019-Dec-15 13:01 246 5 gusting 13 6.7
2019-Dec-15 12:48 257 3 gusting 10 6.7
2019-Dec-15 12:32 262 4 gusting 18 6.7
2019-Dec-15 12:16 307 3 gusting 13 6.7
2019-Dec-15 12:01 236 5 gusting 15 6.7
2019-Dec-15 11:47 276 6 gusting 13 6.1
2019-Dec-15 11:31 261 6 gusting 14 6.1
2019-Dec-15 11:16 252 5 gusting 13 6.1
2019-Dec-15 11:01 258 6 gusting 13 6.1
2019-Dec-15 10:45 263 6 gusting 14 6.1
2019-Dec-15 10:30 269 6 gusting 13 6.1
2019-Dec-15 10:16 290 6 gusting 15 6.1
2019-Dec-15 10:00 301 4 gusting 16 6.1
2019-Dec-15 09:45 259 6 gusting 14 6.1
2019-Dec-15 09:30 249 6 gusting 13 6.1
2019-Dec-15 09:15 312 6 gusting 14 6.1
2019-Dec-15 09:00 266 4 gusting 13 6.1
2019-Dec-15 08:45 250 6 gusting 13 5.6
2019-Dec-15 08:30 264 6 gusting 16 5.6
2019-Dec-15 08:15 268 6 gusting 12 5.6
2019-Dec-15 08:00 266 6 gusting 14 5.6
2019-Dec-15 07:47 210 6 gusting 13 6.1
2019-Dec-15 07:33 245 9 gusting 18 5.6
2019-Dec-15 07:17 259 9 gusting 21 5.6
2019-Dec-15 07:02 283 6 gusting 16 6.1
2019-Dec-15 06:47 287 7 gusting 16 6.1
2019-Dec-15 06:31 264 8 gusting 17 6.1
2019-Dec-15 06:16 285 7 gusting 15 6.1
2019-Dec-15 06:01 233 9 gusting 16 6.7
2019-Dec-15 05:46 275 6 gusting 18 6.7
2019-Dec-15 05:31 240 7 gusting 19 6.7
2019-Dec-15 05:16 277 8 gusting 19 6.7
2019-Dec-15 05:00 240 10 gusting 19 6.7
2019-Dec-15 04:46 281 8 gusting 16 6.7
2019-Dec-15 04:31 299 6 gusting 19 6.7
2019-Dec-15 04:16 302 10 gusting 18 7.2
2019-Dec-15 04:00 290 6 gusting 13 7.2
2019-Dec-15 03:45 254 8 gusting 19 7.2
2019-Dec-15 03:30 242 11 gusting 18 7.8
2019-Dec-15 03:15 307 7 gusting 18 7.8
2019-Dec-15 03:00 294 9 gusting 17 8.3
2019-Dec-15 02:45 262 10 gusting 18 8.3
2019-Dec-15 02:30 277 11 gusting 24 8.9
2019-Dec-15 02:18 256 6 gusting 20 8.9
2019-Dec-15 02:03 283 10 gusting 20 9.4
2019-Dec-15 01:46 258 7 gusting 20 9.4
2019-Dec-15 01:32 264 6 gusting 19 10.0
2019-Dec-15 01:17 226 8 gusting 24 10.0
2019-Dec-15 01:01 286 11 gusting 24 10.0
2019-Dec-15 00:47 248 10 gusting 21 10.0
2019-Dec-15 00:31 262 8 gusting 16 10.0
2019-Dec-15 00:16 266 8 gusting 19 10.6
2019-Dec-15 00:02 240 8 gusting 15 10.6
2019-Dec-14 23:46 262 7 gusting 15 10.6
2019-Dec-14 23:31 238 6 gusting 13 10.6
2019-Dec-14 23:15 231 6 gusting 17 11.1
2019-Dec-14 23:01 262 7 gusting 16 11.1
2019-Dec-14 22:46 238 5 gusting 13 11.7
2019-Dec-14 22:32 245 6 gusting 15 11.7
2019-Dec-14 22:15 247 6 gusting 16 11.7
2019-Dec-14 22:00 207 5 gusting 16 11.7
2019-Dec-14 21:46 263 6 gusting 20 12.2
2019-Dec-14 21:30 252 6 gusting 12 12.2
2019-Dec-14 21:00 191 1 gusting 7 11.7
2019-Dec-14 20:45 181 5 gusting 8 11.1
2019-Dec-14 20:30 159 3 gusting 10 11.1
2019-Dec-14 20:16 209 5 gusting 13 10.6
2019-Dec-14 20:00 217 2 gusting 10 10.6
2019-Dec-14 19:45 122 5 gusting 13 11.1
2019-Dec-14 19:30 207 6 gusting 16 11.7
2019-Dec-14 19:15 199 4 gusting 9 11.7
2019-Dec-14 19:00 149 2 gusting 6 11.7
2019-Dec-14 18:45 138 2 gusting 6 11.7
2019-Dec-14 18:30 136 0 gusting 4 11.7
2019-Dec-14 18:15 089 11.7
2019-Dec-14 18:02 101 2 gusting 4 12.2
2019-Dec-14 17:48 084 12.2
2019-Dec-14 17:31 063 0 gusting 3 12.2
2019-Dec-14 17:17 070 12.2
2019-Dec-14 17:01 068 12.2
2019-Dec-14 16:46 057 12.2
2019-Dec-14 16:31 243 12.2
2019-Dec-14 16:17 243 12.2
2019-Dec-14 16:03 243 12.2
2019-Dec-14 15:46 243 11.7
2019-Dec-14 15:30 243 11.7
2019-Dec-14 15:16 157 11.7
2019-Dec-14 15:01 204 11.7
2019-Dec-14 14:46 068 11.7
2019-Dec-14 14:30 065 11.1
2019-Dec-14 14:16 065 11.1
2019-Dec-14 14:00 321 10.6
2019-Dec-14 13:46 321 10.6
2019-Dec-14 13:30 321 10.6
2019-Dec-14 13:15 321 10.0
2019-Dec-14 13:00 288 0 gusting 3 10.6
2019-Dec-14 12:45 308 11.1
2019-Dec-14 12:31 343 11.1
2019-Dec-14 12:15 224 11.1
2019-Dec-14 12:00 220 0 gusting 4 11.7
2019-Dec-14 11:45 135 11.7
2019-Dec-14 11:30 186 11.7
2019-Dec-14 10:47 076 10.6
2019-Dec-14 10:32 076 10.6
2019-Dec-14 10:16 045 10.0
2019-Dec-14 10:01 044 10.0
2019-Dec-14 09:47 030 10.0
2019-Dec-14 09:31 029 10.0
2019-Dec-14 09:01 040 1 gusting 4 9.4
2019-Dec-14 08:47 340 1 gusting 4 9.4
2019-Dec-14 08:31 011 0 gusting 4 9.4
2019-Dec-14 08:16 027 0 gusting 6 9.4
2019-Dec-14 08:01 046 0 gusting 6 9.4
2019-Dec-14 07:46 321 2 gusting 6 9.4
2019-Dec-14 07:30 335 2 gusting 6 9.4
2019-Dec-14 07:15 122 9.4
2019-Dec-14 07:01 012 5 gusting 11 9.4
2019-Dec-14 06:46 034 4 gusting 8 9.4
2019-Dec-14 06:30 039 4 gusting 7 10.0
2019-Dec-14 06:15 034 3 gusting 6 10.0
2019-Dec-14 06:00 034 1 gusting 6 10.0
2019-Dec-14 05:45 044 3 gusting 6 10.0
2019-Dec-14 05:32 031 1 gusting 4 11.1
2019-Dec-14 05:17 046 5 gusting 7 11.7
2019-Dec-14 05:01 060 2 gusting 5 10.6
2019-Dec-14 04:47 044 1 gusting 5 10.6
2019-Dec-14 04:32 041 1 gusting 6 11.1
2019-Dec-14 04:18 048 2 gusting 8 11.1
2019-Dec-14 04:01 070 3 gusting 7 11.1
2019-Dec-14 03:46 065 2 gusting 7 11.1
2019-Dec-14 03:31 031 2 gusting 6 11.1
2019-Dec-14 03:16 048 3 gusting 6 11.1
2019-Dec-14 03:01 070 3 gusting 6 10.6
2019-Dec-14 02:46 064 2 gusting 6 10.6
2019-Dec-14 02:30 041 0 gusting 4 10.6
2019-Dec-14 02:15 055 3 gusting 6 10.6
2019-Dec-14 02:00 065 3 gusting 6 10.6
2019-Dec-14 01:45 045 2 gusting 6 10.6
2019-Dec-14 01:30 039 1 gusting 5 9.4
2019-Dec-14 01:15 069 1 gusting 5 9.4
2019-Dec-14 01:02 040 4 gusting 6 9.4
2019-Dec-14 00:46 031 1 gusting 5 8.9
2019-Dec-14 00:32 038 1 gusting 4 8.9
2019-Dec-14 00:16 041 1 gusting 3 8.9
2019-Dec-14 00:01 036 8.3
2019-Dec-13 23:47 053 0 gusting 1 8.3
2019-Dec-13 23:32 022 0 gusting 3 8.3
2019-Dec-13 23:17 030 0 gusting 2 8.3
2019-Dec-13 23:01 011 0 gusting 1 8.3
2019-Dec-13 22:46 046 0 gusting 3 8.3
2019-Dec-13 22:31 039 0 gusting 3 8.3
2019-Dec-13 22:17 033 0 gusting 1 8.3
2019-Dec-13 22:01 039 0 gusting 2 7.8
2019-Dec-13 21:46 070 7.8
2019-Dec-13 21:31 041 2 gusting 4 7.8
2019-Dec-13 21:15 062 1 gusting 3 7.8
2019-Dec-13 21:00 022 1 gusting 4 7.8
2019-Dec-13 20:45 018 0 gusting 4 7.8
2019-Dec-13 20:30 029 1 gusting 2 7.8
2019-Dec-13 20:15 039 1 gusting 3 8.3
2019-Dec-13 20:00 036 0 gusting 2 7.8
2019-Dec-13 19:45 036 1 gusting 4 7.8
2019-Dec-13 19:30 034 2 gusting 4 7.8
2019-Dec-13 19:15 036 1 gusting 3 7.8
2019-Dec-13 19:00 051 0 gusting 2 7.8
2019-Dec-13 18:45 322 1 gusting 3 8.3
2019-Dec-13 18:31 034 1 gusting 3 8.3
2019-Dec-13 18:16 074 9.4
2019-Dec-13 18:02 070 9.4
2019-Dec-13 17:47 074 9.4
2019-Dec-13 17:32 047 9.4
2019-Dec-13 17:17 063 0 gusting 2 9.4
2019-Dec-13 17:02 070 0 gusting 4 9.4
2019-Dec-13 16:46 077 1 gusting 4 9.4
2019-Dec-13 16:31 125 3 gusting 6 9.4
2019-Dec-13 16:16 083 2 gusting 5 9.4
2019-Dec-13 16:01 145 1 gusting 6 9.4
2019-Dec-13 15:46 134 1 gusting 5 9.4
2019-Dec-13 15:31 146 3 gusting 8 9.4
2019-Dec-13 15:16 076 0 gusting 8 9.4
2019-Dec-13 15:01 090 1 gusting 5 8.9
2019-Dec-13 14:47 160 2 gusting 7 8.9
2019-Dec-13 14:30 222 1 gusting 4 8.9
2019-Dec-13 14:15 155 1 gusting 6 7.8
2019-Dec-13 14:00 149 0 gusting 2 6.1
2019-Dec-13 13:45 080 5.6
2019-Dec-13 13:30 075 5.0
2019-Dec-13 13:15 071 5.0
2019-Dec-13 13:00 067 4.4